Theta_e
352 351 347 343 342 340 342 346 347 348 349 349 349 349 349 350 350 352 352 351 349 348 348 348 348 349 349 350 351 351 351 351 350 350 350 351 351 349 346 344 343 345 346 347 347 348 347 345 344 345 344 341 342 349 353 353 352 352 353 355 355 355 355
353 352 349 344 342 340 342 345 347 348 349 349 349 350 349 350 351 352 352 351 350 349 348 348 348 349 349 350 351 351 351 351 351 350 351 351 351 350 347 345 345 345 347 347 348 349 348 347 345 345 345 343 346 350 350 352 352 353 354 353 354 356 355
353 353 352 347 343 340 341 344 346 348 348 348 349 350 350 350 351 351 352 352 351 351 350 349 348 349 350 350 351 351 351 351 351 351 352 352 352 352 350 348 348 348 348 347 348 349 349 349 348 347 346 345 349 350 349 351 353 353 353 352 355 357 356
353 354 354 352 347 341 341 343 345 347 348 348 349 350 350 351 351 350 351 351 352 352 352 350 350 350 351 351 351 351 351 352 352 352 353 354 353 353 352 351 350 350 349 349 349 350 349 350 350 350 347 345 349 351 351 352 353 353 353 353 355 357 356
352 353 355 354 350 344 342 343 345 346 348 349 350 350 351 351 351 351 351 352 352 352 351 351 351 353 353 352 352 353 352 352 352 352 352 353 353 353 352 352 352 351 351 350 350 350 350 350 350 351 349 347 349 353 353 352 352 353 353 354 356 358 358
351 353 355 355 353 348 345 344 345 347 349 350 351 351 351 351 351 351 352 352 352 352 352 352 352 353 354 353 354 353 352 352 351 350 351 351 352 352 353 353 353 353 352 351 351 351 350 351 351 351 351 350 352 355 355 354 354 355 355 354 356 357 358
351 351 353 355 354 352 349 345 344 346 348 350 351 351 352 352 352 353 353 353 353 353 353 353 353 354 354 354 354 354 352 351 351 350 351 352 352 352 353 353 352 352 353 352 352 352 352 351 352 352 351 352 354 355 355 354 354 356 356 355 355 356 357
351 351 351 352 353 353 352 349 346 346 347 348 351 351 351 353 353 354 354 354 354 353 353 353 353 354 354 354 354 354 353 352 352 351 352 353 354 354 354 354 353 352 352 353 353 353 353 353 353 352 352 353 354 354 355 354 353 356 358 357 357 357 357
350 351 351 352 353 353 352 349 346 347 347 348 350 351 352 353 354 354 355 355 355 355 354 354 354 354 355 355 354 354 354 354 353 352 352 354 355 355 355 355 355 353 353 355 356 355 353 353 354 353 351 352 353 353 354 354 354 357 358 357 356 357 358
350 350 350 351 352 352 350 348 346 348 349 347 347 350 352 353 354 354 355 355 355 355 355 354 354 355 355 356 355 355 355 355 355 354 354 354 354 355 355 355 355 355 355 356 356 356 354 352 354 353 351 352 353 353 354 356 356 357 357 356 356 357 358
349 350 350 349 349 350 350 350 348 348 349 347 347 348 352 353 353 354 355 355 354 355 355 354 353 354 355 356 356 356 356 356 356 355 355 354 354 355 355 355 356 356 356 356 356 356 355 354 353 353 351 353 354 355 355 356 356 356 357 358 358 357 359
347 348 349 349 348 349 350 351 349 347 347 347 348 348 349 351 352 353 354 355 355 354 354 354 353 353 355 355 356 357 356 356 356 356 356 355 355 355 355 355 355 356 355 356 355 355 356 355 355 354 354 354 355 356 356 356 356 355 356 357 358 358 358
347 347 347 347 348 347 348 350 349 348 346 346 347 348 350 351 352 352 352 353 353 353 354 353 353 353 352 352 354 356 356 354 354 356 356 356 356 356 356 355 355 355 355 355 355 355 356 356 356 356 356 356 356 357 356 355 355 355 355 356 357 358 358
347 348 346 346 346 346 347 348 349 349 348 347 347 348 348 349 351 353 353 352 351 352 354 353 353 353 352 350 352 355 355 354 354 356 356 357 357 356 356 356 355 355 355 355 356 356 356 356 356 356 357 357 357 356 356 356 356 356 355 355 356 357 358
346 347 347 347 346 346 347 347 347 348 348 349 348 348 348 347 348 350 352 353 353 352 353 354 353 353 353 353 352 353 354 354 355 356 356 356 357 356 356 356 356 355 355 355 355 355 355 356 355 356 357 357 357 356 357 357 357 357 356 355 355 356 358
344 345 346 346 346 346 345 345 346 346 346 347 347 347 349 349 348 348 349 351 353 353 352 353 354 353 354 354 354 354 354 353 353 355 356 356 355 355 356 356 356 355 355 355 355 355 356 356 355 356 356 357 357 357 357 358 357 356 355 355 355 356 357
342 343 344 343 343 343 342 341 342 342 343 343 343 344 346 347 349 349 348 349 350 351 352 352 353 355 354 354 355 355 355 353 353 355 356 356 355 355 355 355 356 356 356 355 356 356 355 355 356 355 355 356 357 358 358 358 356 354 354 355 354 355 356
341 341 341 340 339 339 339 338 339 339 339 339 340 341 342 344 346 348 349 349 348 348 349 350 351 353 354 354 354 355 354 353 352 354 356 355 354 354 355 354 354 355 355 355 356 355 355 355 356 356 355 356 357 357 358 358 356 354 354 354 354 354 355
339 338 338 338 337 336 336 336 337 337 336 336 337 337 339 340 343 346 348 349 349 349 349 349 350 351 352 353 353 353 352 351 351 353 354 352 350 350 353 353 353 354 354 354 354 354 354 354 355 356 355 355 356 356 357 357 356 354 352 353 353 353 354
336 336 335 335 334 333 334 335 335 335 334 333 334 335 336 338 341 344 346 347 348 349 349 350 350 351 351 351 351 351 351 351 351 351 351 350 348 348 350 351 353 353 353 354 354 353 353 353 353 354 353 353 354 354 355 356 355 353 352 352 352 353 353
334 334 333 332 332 332 332 333 333 333 332 332 332 333 335 336 337 339 340 342 344 345 346 348 348 349 350 350 350 350 349 349 349 348 348 348 347 348 348 348 350 351 352 352 352 351 351 352 352 352 352 353 354 354 355 355 354 353 352 352 352 353 353
331 331 332 331 331 331 331 330 330 330 331 330 331 331 332 333 335 336 337 338 339 341 343 345 345 347 348 348 348 348 348 348 347 346 346 346 346 347 346 345 347 350 350 349 348 346 346 348 350 350 351 351 352 352 352 352 351 350 350 351 352 352 353
328 329 331 330 330 329 329 329 329 329 329 329 329 330 330 330 332 334 335 335 336 338 340 342 343 344 345 346 346 346 346 346 346 345 345 345 345 346 345 344 345 347 345 344 344 345 344 346 348 349 349 349 350 349 349 349 348 348 348 350 351 352 352
328 329 330 329 329 329 328 328 328 327 328 328 328 329 328 328 330 331 332 333 335 336 337 338 340 341 343 344 344 344 345 344 344 345 345 345 345 345 344 344 344 344 342 341 342 344 344 345 347 348 347 347 348 347 347 348 349 348 348 349 349 350 350
329 329 329 329 328 327 327 327 327 326 326 327 328 328 327 327 328 329 330 332 334 334 335 336 337 338 339 341 342 343 343 343 343 344 344 344 344 343 343 344 344 343 343 343 343 344 345 345 346 346 346 346 346 346 346 348 349 348 348 348 348 348 349
328 329 329 329 328 327 326 326 325 324 325 325 326 327 326 326 326 326 328 330 331 333 333 334 336 337 338 339 340 340 340 341 341 341 342 343 343 343 343 343 344 343 343 344 345 345 346 347 347 347 347 347 348 348 348 349 349 349 348 348 348 348 348
327 328 329 328 327 327 326 325 324 323 323 323 324 326 326 326 326 326 327 327 329 330 331 332 334 335 335 336 336 336 336 336 336 337 338 338 339 341 341 342 343 343 343 344 344 344 345 346 346 347 347 346 347 348 348 348 348 347 347 346 346 347 347
328 328 328 328 327 326 325 324 323 322 321 322 323 324 325 326 327 327 327 326 327 328 329 331 331 331 331 331 331 331 331 331 331 332 333 333 335 337 338 338 339 340 342 343 344 344 344 344 345 345 344 343 344 344 344 344 344 344 344 343 343 343 343
329 328 328 327 326 325 324 323 321 320 319 319 321 322 324 325 327 327 327 326 327 327 328 328 327 327 326 326 326 326 326 325 326 326 327 328 329 331 334 336 337 338 339 341 343 344 343 343 343 342 340 338 339 339 338 338 338 338 339 339 339 339 339
327 328 327 327 326 324 323 323 321 319 317 316 316 318 320 323 325 326 326 326 326 325 325 324 323 323 323 322 322 322 321 321 321 321 322 323 323 326 331 334 336 337 338 339 340 341 340 340 338 336 334 332 332 332 332 333 334 334 334 334 335 334 333
326 327 326 326 325 324 323 323 322 320 318 316 314 314 315 318 321 322 324 325 325 324 324 323 323 322 321 320 320 319 318 318 318 318 319 320 322 327 332 334 334 334 335 336 336 336 335 334 333 331 329 327 325 325 326 327 327 327 328 328 327 326 323
326 326 325 325 325 324 323 323 321 320 320 318 316 315 314 314 316 319 321 322 323 324 324 323 323 322 321 321 320 320 319 318 316 316 317 320 325 331 334 333 332 333 333 333 333 332 331 329 328 327 326 323 322 322 323 323 322 322 322 322 321 321 319
324 324 323 323 323 322 322 322 321 321 320 318 316 315 315 314 315 318 320 321 322 323 323 322 322 322 322 322 322 322 320 318 316 315 316 319 324 330 333 332 332 331 331 329 328 328 328 326 325 325 324 323 323 323 323 322 321 319 317 317 317 317 317
323 322 322 321 321 321 322 321 320 320 320 317 312 311 312 313 314 316 319 321 321 322 324 324 322 323 323 323 322 322 320 318 317 317 316 316 319 324 327 328 329 328 327 326 325 325 325 324 323 322 322 322 322 322 322 320 318 316 314 313 313 313 314
323 323 324 323 322 322 323 321 319 319 319 316 311 309 310 311 311 312 317 321 321 321 323 325 324 323 325 324 322 322 321 319 318 318 318 316 316 316 318 320 321 321 321 321 321 321 321 320 320 318 317 317 318 318 317 317 315 314 313 313 313 314 314
323 323 324 324 323 323 324 323 322 322 320 315 312 312 312 312 310 309 313 318 321 321 321 324 325 326 326 326 325 323 322 321 319 319 318 318 317 315 314 315 315 316 316 316 316 316 316 317 317 316 315 315 315 315 314 314 314 314 315 317 318 319 318
322 323 323 323 324 325 326 325 325 325 323 319 316 315 314 314 314 312 310 313 318 320 321 323 325 326 326 327 326 324 323 323 322 320 319 318 318 317 316 315 315 315 315 315 315 315 316 316 317 316 316 316 316 315 315 315 316 317 319 321 322 322 321
318 319 320 320 322 324 326 326 326 326 325 323 320 318 317 316 317 316 314 312 313 316 319 321 323 324 324 325 324 323 323 323 323 322 321 320 318 317 317 317 317 316 315 315 316 316 317 318 319 319 320 320 319 319 319 319 320 321 322 323 323 323 323
Wind_Speed
11 11 10 9 11 12 12 15 18 18 18 20 21 22 22 21 21 20 22 27 32 32 31 31 30 30 30 30 29 28 26 25 24 23 21 19 18 17 17 17 17 17 16 15 15 14 14 14 15 16 16 15 14 13 11 10 10 10 9 9 9 9 8
9 9 10 10 11 12 13 15 17 17 19 20 20 21 22 21 21 22 23 27 32 33 33 33 32 32 32 31 30 29 28 26 25 24 22 20 19 18 17 17 18 17 16 16 15 14 13 12 14 15 16 15 14 13 12 12 11 11 11 11 10 10 9
7 7 8 8 9 10 11 14 16 17 19 21 20 21 22 22 24 26 26 27 30 31 31 33 34 34 33 32 31 30 30 28 27 25 23 20 19 18 19 19 19 18 18 17 16 15 14 13 13 14 15 15 14 14 13 13 12 11 11 12 11 10 10
7 5 5 6 8 9 10 13 15 17 19 21 22 23 24 25 26 28 29 29 29 29 30 32 34 33 32 33 32 31 30 29 28 26 22 20 18 18 19 19 19 19 18 18 17 16 16 15 14 14 14 16 15 14 13 13 13 12 11 12 11 11 11
5 4 3 3 4 5 7 11 16 18 19 20 22 23 24 25 25 25 26 27 26 28 30 31 29 27 28 30 29 28 30 30 30 28 24 21 20 19 19 19 18 18 19 18 18 17 17 16 16 15 14 15 16 14 13 13 13 13 12 12 11 11 10
4 4 3 1 1 0 1 5 11 17 19 20 21 22 21 22 23 23 24 24 23 24 25 25 24 24 26 27 26 26 28 30 31 31 28 25 23 21 19 19 18 17 18 18 18 17 17 16 16 16 15 14 14 13 13 13 13 12 13 13 13 12 11
5 6 5 4 4 3 2 0 5 9 13 15 16 18 18 19 20 20 21 22 22 24 24 24 23 23 25 26 25 26 29 29 31 32 30 27 24 22 21 20 19 18 17 17 18 17 17 18 17 16 16 15 14 14 13 14 14 13 13 14 15 14 14
1 3 5 6 6 5 4 3 3 6 11 13 14 15 16 17 17 18 18 18 18 20 23 23 22 22 24 25 26 27 28 27 28 31 30 26 23 22 21 20 20 20 19 17 17 17 18 18 17 17 17 16 15 15 15 15 15 14 14 14 15 15 14
3 1 2 4 5 5 5 5 5 7 11 12 13 15 16 16 16 17 17 17 15 16 18 19 18 18 19 21 23 26 25 24 25 28 29 25 22 21 21 20 20 20 20 18 16 17 18 18 16 17 18 17 17 17 16 16 16 15 15 16 16 16 14
4 3 1 3 3 3 5 7 7 6 10 13 14 14 14 15 16 16 16 17 17 17 18 18 18 16 16 18 20 20 21 21 22 24 25 24 22 22 21 19 18 19 20 18 16 16 17 17 17 17 17 17 18 18 17 16 16 15 15 16 17 16 15
5 5 3 3 2 2 3 5 6 4 5 11 15 15 13 14 16 16 17 19 20 21 21 22 22 20 16 15 16 16 17 19 20 21 22 23 22 22 22 20 18 19 20 19 17 16 16 17 17 17 17 17 17 17 17 17 17 16 16 16 16 16 15
5 5 5 5 4 3 2 2 4 4 3 5 9 13 13 14 16 17 17 19 21 23 23 23 23 22 17 14 15 16 17 18 18 19 21 23 22 21 21 21 19 19 19 19 18 17 16 16 16 17 17 18 17 17 17 17 17 17 17 16 15 16 15
5 5 6 7 7 6 5 4 3 2 2 3 4 7 9 12 14 17 18 20 21 22 23 23 24 24 22 22 22 20 21 23 22 20 20 20 21 20 19 20 19 19 18 18 18 17 16 16 16 16 17 18 18 18 17 17 17 18 18 17 16 16 16
8 7 7 8 8 8 8 6 6 5 3 2 5 7 7 8 9 10 14 18 21 22 22 24 26 26 27 29 28 25 26 27 24 22 21 19 19 19 18 18 18 18 18 17 18 17 17 16 15 16 16 16 17 18 17 18 18 18 18 18 17 17 16
10 9 9 10 10 10 10 8 7 7 7 6 6 7 9 11 12 12 11 11 15 19 22 23 24 26 27 29 30 31 29 24 23 25 25 23 22 22 20 18 17 18 18 18 18 17 17 16 15 15 15 15 16 17 17 17 17 18 18 18 17 17 16
10 10 11 11 10 10 9 10 10 10 9 8 8 9 8 9 12 14 14 12 11 13 17 20 22 25 26 27 30 31 29 26 27 29 28 26 26 25 23 20 18 18 18 19 19 18 17 17 16 15 15 14 15 16 16 16 18 19 18 17 17 17 16
10 11 11 11 10 10 10 10 12 12 12 12 13 13 11 9 9 11 13 15 14 12 13 16 19 21 23 26 27 25 22 23 25 26 25 25 25 25 24 22 20 18 19 19 19 19 20 20 18 17 16 15 15 15 15 16 19 20 19 19 19 19 18
11 11 12 11 11 11 11 11 12 14 14 14 15 15 15 13 12 10 10 13 15 16 15 16 18 19 21 23 22 19 20 22 24 24 23 22 23 24 24 24 22 21 21 20 19 20 21 20 19 19 18 16 16 16 15 15 18 20 19 20 21 20 20
11 11 12 11 11 12 11 11 12 14 15 17 18 19 18 17 15 12 10 11 13 15 16 18 20 21 22 23 21 19 21 25 26 26 23 21 22 23 23 22 22 22 22 21 21 23 23 21 19 20 20 19 18 18 16 15 18 21 21 21 21 21 21
11 11 11 11 11 11 12 12 13 14 17 21 23 22 21 20 18 14 11 8 8 9 11 15 18 20 22 23 21 19 21 22 23 23 22 20 21 23 23 21 20 20 20 19 21 23 22 21 20 21 23 22 21 20 18 16 18 22 23 23 23 22 21
10 11 11 11 11 11 12 13 15 15 17 21 22 22 23 23 21 19 18 14 11 8 7 7 11 15 19 20 19 18 20 21 20 20 21 21 20 21 24 22 22 23 21 18 19 20 20 21 21 21 22 20 17 16 14 12 14 17 21 23 23 20 20
8 9 10 11 11 12 13 13 14 15 15 18 20 22 23 23 23 23 23 21 18 15 13 11 8 8 13 18 19 19 20 21 19 17 18 18 15 15 18 18 18 19 18 14 14 15 17 20 19 18 19 18 17 16 14 13 15 15 17 21 22 20 19
7 9 11 12 13 13 13 13 14 15 16 17 19 20 21 23 25 27 27 24 23 21 19 19 17 10 1 7 12 15 16 16 15 15 16 15 12 11 11 11 10 10 10 9 9 10 12 14 13 11 12 14 16 17 17 16 17 15 14 17 19 18 17
8 10 11 12 13 13 14 14 15 17 18 18 19 19 21 24 28 30 27 23 22 25 24 23 22 18 13 9 6 9 12 12 12 13 14 12 10 7 6 6 5 5 7 9 10 10 10 10 10 9 9 12 14 15 14 11 11 12 11 13 14 12 12
8 10 11 12 12 13 13 14 16 19 20 19 18 18 21 26 30 31 29 23 21 23 22 21 21 19 17 16 14 12 12 11 10 10 9 8 7 5 3 2 3 4 5 7 8 8 6 7 10 11 12 13 15 16 13 9 10 13 13 14 16 13 10
8 9 10 11 11 11 13 15 18 19 19 18 17 17 19 25 29 29 29 25 20 19 18 18 19 18 17 17 17 15 15 13 12 10 8 8 7 5 3 2 3 4 5 6 6 5 4 4 7 9 9 9 9 10 9 8 10 13 13 15 16 15 12
8 9 9 10 10 10 12 15 16 16 17 19 19 16 17 22 25 24 25 25 21 16 15 18 20 20 20 20 20 19 19 18 17 16 15 13 11 9 7 4 3 3 5 6 7 7 6 5 6 8 8 8 7 7 6 6 8 9 10 12 13 14 14
8 8 9 10 10 10 11 12 14 15 17 20 21 18 17 19 21 20 21 22 19 15 16 18 20 21 22 22 22 22 22 21 21 21 21 19 17 14 11 7 4 3 3 4 5 6 7 6 7 7 6 5 5 5 5 5 6 6 7 8 9 10 11
7 8 8 9 10 10 10 11 12 13 14 18 20 20 19 18 18 18 19 18 16 15 17 18 19 20 20 21 21 20 19 19 20 21 20 19 18 17 14 12 9 8 6 5 3 2 3 4 6 6 6 6 6 5 4 2 1 1 2 3 4 4 5
6 7 8 8 9 9 10 10 10 11 14 17 19 20 20 19 17 18 18 17 15 15 15 15 16 18 18 18 17 17 17 17 18 18 17 17 16 16 15 14 13 12 11 9 5 3 3 4 5 7 8 8 8 8 8 6 6 5 4 4 4 4 4
5 6 7 7 8 9 10 9 9 10 13 16 18 19 20 19 18 18 17 16 16 15 14 14 16 16 17 16 16 15 16 16 17 16 17 17 17 16 15 15 15 14 13 12 10 10 10 10 10 11 11 12 13 13 11 10 9 9 8 7 7 6 6
4 5 6 7 7 8 7 8 9 10 12 14 16 17 18 18 19 18 15 15 15 15 15 15 15 16 16 17 17 17 17 17 17 17 17 17 18 17 16 16 16 16 15 15 14 14 14 15 15 14 14 14 14 13 12 11 10 9 8 7 5 5 5
4 4 5 6 6 6 6 7 8 10 11 13 15 15 15 16 17 16 14 13 14 14 14 14 14 15 16 16 17 17 17 17 17 17 18 18 18 19 19 18 18 18 17 16 14 13 13 14 14 14 13 12 11 10 10 9 9 9 8 8 7 6 6
4 4 4 5 6 6 6 7 8 9 10 11 14 15 15 15 15 15 14 13 12 12 13 13 13 14 14 14 15 15 16 16 16 17 18 18 18 19 20 20 19 19 19 18 15 13 13 14 14 13 12 11 10 9 10 11 11 11 11 12 12 10 9
4 3 3 4 5 6 7 8 10 10 9 11 13 14 15 15 15 14 14 13 12 12 12 11 12 13 12 12 13 13 14 14 15 16 17 17 17 18 18 18 18 18 18 17 16 14 14 14 13 13 12 11 11 11 10 11 11 11 11 12 12 12 11
4 3 2 2 3 5 6 8 9 9 9 11 13 14 14 15 15 14 13 12 12 12 11 10 10 10 11 10 10 10 11 11 12 13 13 13 14 16 16 16 16 16 16 16 15 15 14 14 13 12 12 11 11 10 10 9 9 10 10 10 11 11 10
5 3 2 1 1 2 3 5 7 7 7 10 11 12 13 14 15 15 14 12 11 12 11 10 9 8 8 9 9 9 9 8 8 9 10 10 11 12 13 14 14 14 14 14 14 14 14 14 13 13 12 12 12 11 11 10 10 11 11 11 11 11 10
6 4 3 2 1 2 3 4 5 5 6 8 9 10 11 12 13 14 14 13 11 10 10 9 9 8 7 7 7 8 8 7 6 6 6 6 7 8 9 10 10 10 11 11 12 12 12 13 13 13 13 13 14 14 13 12 12 12 12 12 12 12 12
Wind_Direction
188 189 191 189 191 196 193 188 188 187 184 186 191 192 191 191 190 188 192 199 204 206 209 211 213 213 213 214 215 216 217 218 219 222 228 233 236 239 239 236 235 237 236 237 239 242 245 243 237 238 243 244 238 236 244 255 255 249 246 246 249 251 256
182 183 187 189 194 198 195 189 187 187 187 190 191 190 191 191 190 191 194 200 204 207 209 210 212 214 215 216 217 218 218 218 219 221 224 229 234 236 237 236 238 241 242 241 243 247 249 245 240 241 243 241 235 236 246 254 255 250 245 245 248 251 255
173 178 181 182 192 198 194 190 189 190 190 191 192 191 191 192 193 196 197 200 203 205 207 210 212 214 215 216 218 220 220 219 219 220 221 225 230 232 233 237 240 242 245 245 246 248 246 244 244 244 242 238 234 238 248 253 253 250 248 248 248 251 256
168 174 178 179 190 195 193 191 193 194 195 194 193 193 195 195 197 199 200 202 201 201 205 209 211 212 213 215 217 219 221 220 220 219 218 221 225 227 231 237 241 242 243 246 249 249 247 245 249 251 246 238 234 240 250 252 251 251 251 251 250 252 257
152 155 170 196 204 202 197 195 194 194 196 195 193 195 197 198 198 199 202 203 202 204 207 209 208 208 211 214 215 217 220 221 221 220 219 222 226 228 230 235 239 242 244 247 250 251 250 247 250 254 249 239 236 242 250 251 251 252 252 252 252 254 256
117 124 131 117 99 137 237 218 208 200 196 195 194 196 198 198 198 200 201 202 203 205 206 205 204 205 209 212 212 216 219 221 222 222 221 224 228 230 231 234 237 239 242 245 249 250 249 248 249 250 247 239 235 239 245 248 248 248 250 252 254 256 257
120 125 132 131 137 140 82 43 228 211 200 196 194 196 198 197 198 200 199 201 203 204 204 204 203 205 209 210 211 215 220 221 222 222 221 223 227 229 231 234 236 237 238 241 246 247 248 249 249 249 246 239 235 238 242 247 249 248 250 254 257 261 261
62 136 155 153 156 162 144 143 176 184 193 197 194 193 197 198 197 199 200 201 202 205 208 207 205 207 210 210 211 215 219 220 220 221 220 220 223 225 227 231 235 238 237 236 241 245 247 248 247 247 247 242 240 243 245 250 254 252 249 252 257 260 259
349 339 187 150 141 151 149 146 153 166 178 185 190 192 195 198 199 200 200 200 202 206 210 211 210 212 212 212 214 216 217 217 217 219 219 217 219 221 222 226 231 235 235 231 233 240 245 245 241 243 248 245 245 248 249 252 255 253 250 254 258 259 256
3 11 122 140 109 101 122 135 145 158 167 172 185 195 196 196 199 199 197 198 200 202 206 208 209 212 214 216 220 220 218 217 217 218 217 216 218 220 221 223 225 229 231 228 229 234 241 242 238 240 246 244 245 249 250 251 252 251 250 253 256 257 256
14 29 70 121 109 71 94 123 127 136 165 172 181 191 193 195 198 199 200 201 202 204 206 207 209 210 211 215 222 225 226 225 221 219 217 218 219 220 221 222 223 225 227 228 229 231 234 237 235 235 239 238 238 243 247 249 250 249 249 250 252 254 253
26 34 45 63 74 67 42 74 113 137 187 189 185 187 190 199 202 202 205 206 208 211 209 208 210 207 204 212 222 224 229 234 231 225 221 220 221 222 221 221 222 223 224 226 229 229 228 229 229 231 235 236 235 237 243 246 247 248 249 248 249 252 251
47 48 47 50 53 53 38 23 47 99 178 218 233 216 205 208 207 206 209 210 213 215 211 212 213 206 208 222 225 219 224 233 236 236 232 225 224 224 223 222 222 222 223 224 225 227 226 224 225 230 233 237 237 237 241 246 246 247 250 249 247 249 250
54 57 56 55 51 50 46 32 22 21 12 306 295 293 278 262 246 228 218 215 216 215 212 215 216 210 213 223 223 220 223 226 228 230 232 230 227 225 224 224 224 221 221 222 222 225 226 224 225 229 233 235 238 241 243 247 248 248 250 251 249 247 247
48 50 53 56 53 49 47 42 36 24 6 346 326 315 298 285 279 269 253 235 225 220 216 216 216 214 216 218 220 223 223 223 227 228 227 227 229 231 230 225 223 222 220 221 224 226 227 227 227 229 232 235 240 246 247 246 246 248 250 252 251 249 247
44 46 49 51 51 48 45 41 37 28 14 5 358 347 324 296 282 274 268 262 247 230 225 222 219 219 219 218 223 226 224 225 233 233 230 228 230 233 233 228 224 222 220 221 224 225 227 230 232 233 235 236 242 249 249 246 250 254 255 255 254 254 252
42 46 48 47 45 42 39 36 32 25 17 12 8 3 355 336 309 284 269 264 261 253 243 235 229 224 222 222 226 228 224 225 233 235 232 229 227 229 230 230 226 222 220 221 222 224 229 233 235 237 237 237 241 245 245 248 258 263 263 261 260 258 255
39 41 41 42 41 39 37 34 31 27 20 14 10 7 4 354 338 315 289 273 267 262 256 248 240 233 229 228 230 229 224 223 231 238 236 230 229 229 226 226 227 225 223 222 221 224 229 231 233 236 238 238 240 245 245 250 261 268 269 268 267 262 257
37 39 40 40 38 37 37 34 31 29 23 19 17 15 13 8 356 338 314 290 276 267 256 247 243 239 237 236 235 233 229 225 225 230 231 228 231 233 227 220 223 227 227 226 226 228 229 229 230 235 238 237 240 244 246 250 260 270 273 273 272 268 260
36 39 41 40 38 37 35 31 30 26 23 24 25 23 23 23 19 13 1 338 308 286 265 251 244 239 238 237 233 229 230 228 221 219 222 225 230 237 235 222 214 219 225 229 231 230 229 228 231 235 239 240 243 247 251 255 263 271 275 274 272 270 263
37 41 42 41 39 36 32 30 30 28 25 25 27 28 30 31 33 36 36 33 26 12 342 298 265 248 239 232 226 221 220 218 210 206 213 221 226 234 237 230 220 220 226 233 237 236 236 236 234 237 241 242 243 247 250 254 261 272 280 276 270 265 261
37 41 44 45 42 37 31 30 31 32 30 28 29 33 34 37 42 47 47 45 43 41 34 19 346 282 243 225 218 213 208 206 199 193 198 205 208 217 228 232 228 224 226 233 241 249 260 259 250 243 245 244 241 241 244 247 254 272 290 283 268 258 256
39 47 52 52 50 44 38 36 37 37 37 35 34 35 37 41 48 52 50 47 46 48 48 42 32 20 337 209 204 192 182 183 182 174 174 181 190 206 225 234 234 232 235 237 235 242 261 273 273 266 262 260 254 248 248 251 256 269 290 286 267 253 249
43 52 56 55 55 52 45 42 42 43 44 43 39 38 42 48 52 52 49 46 46 48 48 45 41 41 47 58 95 130 134 143 149 146 148 154 161 175 201 224 239 255 258 251 242 234 237 257 276 282 282 281 276 265 255 252 255 259 270 281 278 264 253
49 53 56 56 58 57 52 50 49 48 46 43 39 40 48 54 55 53 49 46 47 48 46 44 45 45 47 54 64 80 93 105 116 122 129 129 123 127 149 213 264 276 264 249 247 249 251 264 272 273 273 274 275 274 273 269 263 259 258 268 278 280 271
56 52 53 56 57 59 59 57 54 49 43 40 39 40 48 56 57 53 50 49 48 47 46 49 53 54 54 58 61 63 67 77 87 91 97 97 91 85 71 25 311 296 282 261 252 255 256 256 267 273 273 267 266 275 281 272 263 264 264 266 272 277 276
67 62 57 56 54 57 62 60 56 52 48 48 49 44 46 56 57 52 52 53 48 43 51 62 66 65 64 64 63 61 61 63 68 70 70 69 69 67 59 41 351 312 292 277 269 265 251 235 247 261 264 266 272 275 271 260 257 262 266 269 273 277 278
68 65 60 56 52 53 59 61 58 54 51 52 55 52 50 56 56 52 53 54 48 47 60 70 71 70 69 68 65 63 62 60 60 61 60 58 57 57 54 46 28 356 310 289 285 278 265 249 243 244 239 242 247 237 230 241 253 258 266 274 279 280 278
65 62 59 54 48 46 51 58 58 54 52 53 55 56 55 56 56 54 53 52 53 61 69 70 70 69 68 66 63 60 59 58 56 57 56 55 54 53 52 50 43 34 23 13 356 299 263 229 209 197 177 164 163 160 156 157 175 257 295 304 306 302 296
70 68 66 59 50 44 46 53 54 54 54 53 53 55 56 56 55 53 51 52 58 66 69 66 64 64 62 61 59 56 53 51 51 51 51 49 47 46 48 49 47 43 41 40 44 78 107 126 143 139 127 116 106 100 97 94 91 86 75 61 45 31 18
75 72 69 63 54 49 48 49 49 50 53 51 50 51 52 54 55 52 48 51 57 59 59 59 58 59 59 59 58 55 52 50 48 47 46 46 46 46 48 53 57 58 60 62 66 77 85 86 90 93 92 88 84 83 82 81 79 77 73 65 54 44 32
90 76 69 64 54 47 48 50 46 45 47 46 46 47 47 50 54 51 49 53 56 55 53 54 56 60 62 62 61 59 56 52 49 47 46 46 48 49 52 58 61 63 67 70 71 74 79 81 82 82 80 78 79 79 75 72 69 65 58 50 41 28 13
108 87 75 71 62 52 53 55 50 46 43 40 39 41 43 47 49 49 51 55 57 55 54 54 58 64 66 64 61 59 58 57 55 53 53 52 52 54 57 60 61 61 61 63 64 67 73 78 82 83 79 73 71 68 62 55 49 41 30 19 11 7 358
125 108 92 84 74 65 60 58 55 52 47 42 39 39 41 43 44 45 49 53 58 60 59 58 60 64 65 63 60 60 61 61 60 60 59 58 56 56 58 60 62 62 62 61 61 61 64 67 68 67 64 59 51 41 33 28 22 16 8 2 358 356 353
132 120 107 92 78 71 67 62 60 57 51 45 44 43 44 44 43 43 46 49 56 61 62 61 63 64 63 62 61 61 61 61 61 63 65 64 63 62 62 62 63 65 65 63 61 58 56 56 54 50 46 41 35 29 24 19 15 10 5 1 355 349 345
152 149 140 109 76 69 68 64 61 60 54 48 46 45 46 45 43 43 44 46 52 58 57 57 61 62 61 61 59 59 59 59 58 60 64 69 71 72 72 69 66 68 69 66 61 56 51 49 48 46 42 38 35 33 28 21 17 15 13 10 3 356 351
180 176 180 159 69 52 54 57 58 61 57 50 45 44 43 41 40 41 42 42 46 52 54 55 56 57 57 57 56 55 55 56 55 54 59 69 75 80 84 83 77 72 70 66 61 56 52 49 49 49 49 48 47 45 40 35 33 29 21 14 11 12 13
206 218 233 247 311 4 17 28 35 40 42 42 41 40 39 36 33 34 37 39 39 42 46 50 52 52 50 49 48 47 46 49 50 49 55 66 72 77 85 90 88 82 75 69 65 62 60 59 59 58 59 61 61 59 55 50 44 37 28 18 14 15 17